Location: Barcelona
(41.3830°N, 2.1830°E)
Time: 21:08:03
(UTC+01:00)

ISS - Pass Details

Date: 26 March 2017
Orbit: 399 x 409 km, 51.6° (Epoch: 24 March)

Event Time Altitude Azimuth Distance (km) Brightness Sun altitude
Rises 21:02:49 0° 193° (SSW) 2,294 0.0 -10.6°
Reaches altitude 10° 21:05:27 10° 170° (S) 1,443 -1.3 -11.1°
Enters shadow 21:07:24 16° 133° (SE) 1,159 -2.0 -11.4°
